Location: Izdebno
(52.6670°N, 16.2170°E)
Time: 05:35:22
(UTC+02:00)

Vanguard 2 Rocket - Pass Details

Date: 02 March 2024
Orbit: 555 x 3307 km, 32.9° (Epoch: 24 April)

Event Time Altitude Azimuth Distance (km) Brightness Sun altitude
Rises 12:55:35 0° 214° (SSW) 3,632 11.0 29.5°
Reaches altitude 10° 12:58:47 10° 194° (SSW) 3,042 11.3 29.4°
Maximum altitude 13:03:38 18° 155° (SSE) 3,022 10.5 29.2°
Drops below altitude 10° 13:10:10 10° 118° (ESE) 4,325 10.6 28.9°
Sets 13:16:09 0° 103° (ESE) 5,924 11.0 28.7°
